Starlink 32550

operational
NORAD ID: 62131 Int'l Des: 2024-222 Owner: SPXS Country: US Constellation: starlink
LEOCIRCULAR

About Starlink 32550

Description loading...

Live Position

Loading 3D Globe...

Upcoming Passes

Altitude History

Altitude vs Time

uPlot chart will show altitude changes over time

Two-Line Element Set

1 62131U 24222T 25303.61979872 .00040153 00000-0 14596-2 0 9997
2 62131 43.0014 150.9920 0002948 284.4556 75.5968 15.27601921 52900
Epoch: Oct 30, 2025 • Age: 29 hours

Current Status

Altitude 486.2 km
Velocity 7.63 km/s
Sub-Earth Point 38.37°N, 129.54°W
Launch Date Nov 27, 2024
Age 0.9 years
Type internet

Technical Details

Classification Payload
Mass 730.00 kg
Dry Mass 700.00 kg
Total Mass 730.00 kg
Length 0.30 m
Diameter 4.10 m
Span 29.00 m
Shape Box + pan
Manufacturer SPXS
Bus Type Starlink V2M
Phase Status In Orbit
Owner/State SPXS/US

Large Constellations

Loading constellations...